Weather History for Gulkana, AK

Change the Weather History Date:

Tuesday, December 10, 2013

  Actual Average Record
Temperature  
Mean Temperature 14 °F -  
Max Temperature 16 °F 2 °F 42 °F (1986)
Min Temperature 12 °F -12 °F -52 °F (1964)
Degree Days  
Heating Degree Days 51    
Moisture  
Dew Point 12 °F    
Average Humidity 88    
Maximum Humidity 95    
Minimum Humidity 82    
Precipitation  
Precipitation 0.04 in - - ()
Sea Level Pressure  
Sea Level Pressure 30.10 in    
Wind  
Wind Speed 2 mph (NNW)    
Max Wind Speed 7 mph    
Max Gust Speed -    
Visibility 5 miles    
Events Snow    
Averages and records for this station are not official NWS values.
T = Trace of Precipitation, MM = Missing Value Source: NWS Daily Summary

Daily Weather History Graph

Daily Weather History Graph

Search for Another Location

Airport:

Trip Planner

Search our weather history database for the weather conditions in past years. The results will help you decide how hot, cold, wet, or windy it might be!

Date:

Astronomy

Dec. 10, 2013 Rise Set
Actual Time 9:55 AM AKST 3:13 PM AKST
Civil Twilight 8:50 AM AKST 4:18 PM AKST
Nautical Twilight 7:49 AM AKST 5:20 PM AKST
Astronomical Twilight 6:53 AM AKST 6:15 PM AKST
Moon 1:03 PM AKST (12/10) 1:31 AM AKST (12/10)
Length of Visible Light 7h 27m
Length of Day
5h 17m
Waxing Gibbous, 63% of the Moon is Illuminated
Dec 10
Waxing Gibbous
Dec 17
Full
Dec 25
Last Quarter
Jan 1
New
Jan 7
First Quarter

Hourly Weather History & Observations

Time (AKST) Temp. Windchill Dew Point Humidity Pressure Visibility Wind Dir Wind Speed Gust Speed Precip Events Conditions
12:15 AM 12.9 °F - 9.0 °F 84% 30.20 in 10.0 mi Calm Calm - N/A   Overcast
12:53 AM 12.9 °F - 10.9 °F 92% 30.33 in 10.0 mi Calm Calm - N/A   Overcast
1:13 AM 12.9 °F - 10.9 °F 92% 30.19 in 10.0 mi Calm Calm - N/A   Overcast
1:39 AM 12.9 °F - 10.9 °F 92% 30.18 in 10.0 mi Calm Calm - N/A   Overcast
1:53 AM 12.9 °F - 10.9 °F 92% 30.32 in 10.0 mi Calm Calm - N/A   Overcast
3:12 AM 14.0 °F - 12.0 °F 92% 30.16 in 1.8 mi Calm Calm - N/A   Overcast
3:22 AM 14.0 °F - 12.0 °F 92% 30.16 in 1.0 mi Calm Calm - N/A   Mist
3:53 AM 14.0 °F - 12.0 °F 92% 30.29 in 1.0 mi Calm Calm - N/A   Mist
4:17 AM 14.0 °F - 12.0 °F 92% 30.14 in 2.0 mi Calm Calm - N/A   Overcast
4:24 AM 14.0 °F - 12.0 °F 92% 30.14 in 1.2 mi Calm Calm - N/A   Overcast
4:35 AM 14.0 °F - 12.9 °F 95% 30.14 in 1.0 mi Calm Calm - N/A   Mist
4:53 AM 14.0 °F 8.2 °F 12.0 °F 92% 30.27 in 1.8 mi NNW 3.5 mph - N/A   Overcast
5:34 AM 15.1 °F 9.4 °F 12.0 °F 88% 30.11 in 3.0 mi NNE 3.5 mph - N/A   Overcast
5:53 AM 14.0 °F 5.1 °F 12.0 °F 92% 30.25 in 6.0 mi North 5.8 mph - N/A   Overcast
6:53 AM 15.1 °F 7.7 °F 12.0 °F 88% 30.23 in 10.0 mi NNE 4.6 mph - 0.00 in   Overcast
7:00 AM 15.1 °F 9.4 °F 12.0 °F 88% 30.09 in 10.0 mi NNE 3.5 mph - N/A   Overcast
7:21 AM 15.1 °F 9.4 °F 12.0 °F 88% 30.09 in 10.0 mi North 3.5 mph - N/A   Overcast
7:53 AM 15.1 °F - 12.0 °F 88% 30.22 in 10.0 mi Calm Calm - N/A   Overcast
8:53 AM 15.1 °F - 12.0 °F 88% 30.20 in 10.0 mi Calm Calm - N/A   Overcast
9:53 AM 15.1 °F - 12.0 °F 88% 30.20 in 10.0 mi Calm Calm - N/A   Overcast
10:44 AM 15.1 °F - 12.0 °F 88% 30.06 in 6.0 mi Calm Calm - 0.00 in Snow Light Snow
10:53 AM 15.1 °F 9.4 °F 12.0 °F 88% 30.19 in 4.0 mi North 3.5 mph - 0.00 in Snow Light Snow
11:14 AM 15.1 °F 9.4 °F 12.0 °F 88% 30.05 in 2.0 mi NNW 3.5 mph - 0.00 in Snow Light Snow
11:36 AM 15.1 °F 9.4 °F 12.0 °F 88% 30.04 in 1.8 mi North 3.5 mph - 0.00 in Snow Light Snow
11:44 AM 15.1 °F 9.4 °F 12.0 °F 88% 30.04 in 1.2 mi NNW 3.5 mph - 0.00 in Snow Light Snow
11:53 AM 15.1 °F 6.4 °F 12.0 °F 88% 30.18 in 1.2 mi NNW 5.8 mph - 0.00 in Snow Light Snow
12:36 PM 15.1 °F 7.7 °F 12.0 °F 88% 30.03 in 2.0 mi NNW 4.6 mph - 0.02 in Snow Light Snow
12:53 PM 15.1 °F 6.4 °F 12.0 °F 88% 30.16 in 7.0 mi NNW 5.8 mph - 0.02 in Snow Light Snow
1:49 PM 15.8 °F 8.6 °F 12.2 °F 86% 30.01 in 2.0 mi NW 4.6 mph - 0.00 in Snow Light Snow
1:53 PM 15.1 °F 7.7 °F 12.0 °F 88% 30.15 in 2.0 mi NW 4.6 mph - 0.00 in Snow Light Snow
2:11 PM 15.1 °F 6.4 °F 12.0 °F 88% 30.00 in 1.5 mi NW 5.8 mph - 0.00 in Snow Light Snow
2:34 PM 15.1 °F 6.4 °F 12.0 °F 88% 30.00 in 0.8 mi WNW 5.8 mph - 0.01 in Snow Light Snow
2:51 PM 15.8 °F 10.2 °F 12.2 °F 86% 29.99 in 1.0 mi WNW 3.5 mph - 0.02 in Snow Light Snow
2:53 PM 15.1 °F 9.4 °F 12.0 °F 88% 30.13 in 1.0 mi Variable 3.5 mph - 0.02 in Snow Light Snow
3:53 PM 15.1 °F 6.4 °F 12.0 °F 88% 30.12 in 2.0 mi NW 5.8 mph - 0.01 in Snow Light Snow
4:07 PM 15.1 °F 9.4 °F 12.0 °F 88% 29.98 in 2.5 mi Variable 3.5 mph - 0.00 in Snow Light Snow
4:43 PM 15.1 °F 9.4 °F 12.0 °F 88% 29.98 in 1.8 mi NW 3.5 mph - 0.01 in Snow Light Snow
4:53 PM 15.1 °F 9.4 °F 12.0 °F 88% 30.12 in 1.8 mi NW 3.5 mph - 0.01 in Snow Light Snow
5:01 PM 15.1 °F 9.4 °F 12.0 °F 88% 29.98 in 2.0 mi NW 3.5 mph - 0.00 in Snow Light Snow
5:07 PM 15.1 °F 9.4 °F 10.9 °F 84% 29.98 in 3.0 mi NW 3.5 mph - 0.00 in Snow Light Snow
5:53 PM 15.1 °F 6.4 °F 12.0 °F 88% 30.09 in 5.0 mi WNW 5.8 mph - 0.00 in Snow Light Snow
6:09 PM 15.1 °F 7.7 °F 12.0 °F 88% 29.95 in 4.0 mi WNW 4.6 mph - 0.00 in Snow Light Snow
6:40 PM 15.1 °F 7.7 °F 12.0 °F 88% 29.93 in 9.0 mi West 4.6 mph - 0.00 in   Overcast
6:53 PM 15.1 °F 6.4 °F 12.0 °F 88% 30.06 in 10.0 mi WNW 5.8 mph - 0.00 in   Overcast
7:24 PM 15.1 °F 9.4 °F 12.0 °F 88% 29.91 in 10.0 mi Variable 3.5 mph - N/A   Overcast
7:53 PM 15.1 °F 5.2 °F 12.0 °F 88% 30.03 in 10.0 mi WNW 6.9 mph - N/A   Overcast
8:53 PM 15.1 °F 6.4 °F 12.0 °F 88% 30.01 in 10.0 mi WNW 5.8 mph - N/A   Mostly Cloudy
9:08 PM 16.0 °F 7.4 °F 12.0 °F 84% 29.87 in 10.0 mi WNW 5.8 mph - N/A   Mostly Cloudy
9:53 PM 16.0 °F 7.4 °F 12.9 °F 88% 29.98 in 10.0 mi NNW 5.8 mph - N/A   Overcast
10:53 PM 12.9 °F 6.9 °F 10.0 °F 88% 29.98 in 6.0 mi NNE 3.5 mph - N/A   Overcast
11:53 PM 14.0 °F 8.2 °F 10.9 °F 88% 29.96 in 5.0 mi NNW 3.5 mph - 0.00 in Snow Light Snow